Time,TemperatureF,DewpointF,PressureIn,WindDirection,WindDirectionDegrees,WindSpeedMPH,WindSpeedGustMPH,Humidity,HourlyPrecipIn,Conditions,Clouds,dailyrainin,SoftwareType,DateUTC
2013-02-24 00:09:00,21.2,2.2,29.84,WSW,248,2.0,6.0,43,0.00,CLR,,0.00,WeatherDisplay:10.37,2013-02-24 05:09:00,
2013-02-24 00:19:00,21.2,2.2,29.84,West,260,1.0,5.0,43,0.00,CLR,,0.00,WeatherDisplay:10.37,2013-02-24 05:19:00,
2013-02-24 00:29:00,21.2,2.2,29.84,SW,215,3.0,4.0,43,0.00,CLR,,0.00,WeatherDisplay:10.37,2013-02-24 05:29:00,
2013-02-24 00:39:00,21.2,2.2,29.84,SW,222,2.0,5.0,43,0.00,CLR,,0.00,WeatherDisplay:10.37,2013-02-24 05:39:00,
2013-02-24 00:49:00,21.2,2.2,29.84,SSW,202,2.0,3.0,43,0.00,CLR,,0.00,WeatherDisplay:10.37,2013-02-24 05:49:00,
2013-02-24 00:59:00,21.2,2.2,29.84,SSW,202,3.0,5.0,43,0.00,CLR,,0.00,WeatherDisplay:10.37,2013-02-24 05:59:00,
2013-02-24 01:09:00,21.2,2.2,29.84,SW,215,1.0,2.0,43,0.00,CLR,,0.00,WeatherDisplay:10.37,2013-02-24 06:09:00,
2013-02-24 01:19:00,21.2,2.2,29.84,SW,223,2.0,4.0,43,0.00,CLR,,0.00,WeatherDisplay:10.37,2013-02-24 06:19:00,
2013-02-24 01:29:00,21.2,2.2,29.84,SW,221,3.0,6.0,43,0.00,CLR,,0.00,WeatherDisplay:10.37,2013-02-24 06:29:00,
2013-02-24 01:39:00,21.2,2.2,29.84,SW,222,5.0,8.0,43,0.00,CLR,,0.00,WeatherDisplay:10.37,2013-02-24 06:39:00,
2013-02-24 01:49:00,21.2,2.2,29.84,SW,224,2.0,10.0,43,0.00,CLR,,0.00,WeatherDisplay:10.37,2013-02-24 06:49:00,
2013-02-24 01:59:00,21.2,2.2,29.84,WNW,291,6.0,8.0,43,0.00,CLR,,0.00,WeatherDisplay:10.37,2013-02-24 06:59:00,
2013-02-24 02:09:00,21.2,2.2,29.84,NW,311,3.0,9.0,43,0.00,CLR,,0.00,WeatherDisplay:10.37,2013-02-24 07:09:00,
2013-02-24 02:19:00,21.2,2.2,29.84,NW,319,3.0,7.0,43,0.00,CLR,,0.00,WeatherDisplay:10.37,2013-02-24 07:19:00,
2013-02-24 02:29:00,21.2,2.2,29.84,NW,312,5.0,7.0,43,0.00,CLR,,0.00,WeatherDisplay:10.37,2013-02-24 07:29:00,
2013-02-24 02:39:00,21.2,2.2,29.84,NW,313,3.0,7.0,43,0.00,CLR,,0.00,WeatherDisplay:10.37,2013-02-24 07:39:00,
2013-02-24 02:49:00,21.2,2.2,29.87,WNW,292,2.0,5.0,43,0.00,CLR,,0.00,WeatherDisplay:10.37,2013-02-24 07:49:00,
2013-02-24 02:59:00,21.2,2.2,29.87,WNW,294,3.0,5.0,43,0.00,CLR,,0.00,WeatherDisplay:10.37,2013-02-24 07:59:00,
2013-02-24 03:09:00,21.2,2.2,29.87,WNW,301,3.0,6.0,43,0.00,CLR,,0.00,WeatherDisplay:10.37,2013-02-24 08:09:00,
2013-02-24 03:19:00,21.2,2.2,29.84,WNW,296,3.0,6.0,43,0.00,CLR,,0.00,WeatherDisplay:10.37,2013-02-24 08:19:00,
2013-02-24 03:29:00,21.2,2.2,29.84,WNW,295,3.0,4.0,43,0.00,CLR,,0.00,WeatherDisplay:10.37,2013-02-24 08:29:00,
2013-02-24 03:39:00,21.2,2.2,29.84,NW,308,3.0,6.0,43,0.00,CLR,,0.00,WeatherDisplay:10.37,2013-02-24 08:39:00,
2013-02-24 03:49:00,21.2,2.2,29.84,NW,310,3.0,5.0,43,0.00,CLR,,0.00,WeatherDisplay:10.37,2013-02-24 08:49:00,
2013-02-24 03:59:00,21.2,2.2,29.84,WNW,298,2.0,5.0,43,0.00,CLR,,0.00,WeatherDisplay:10.37,2013-02-24 08:59:00,
2013-02-24 04:09:00,21.2,2.2,29.84,WNW,297,2.0,3.0,43,0.00,CLR,,0.00,WeatherDisplay:10.37,2013-02-24 09:09:00,
2013-02-24 04:19:00,21.2,2.2,29.84,SW,236,0.0,3.0,43,0.00,CLR,,0.00,WeatherDisplay:10.37,2013-02-24 09:19:00,
2013-02-24 04:29:00,21.2,2.2,29.84,NW,306,0.0,2.0,43,0.00,CLR,,0.00,WeatherDisplay:10.37,2013-02-24 09:29:00,
2013-02-24 04:39:00,21.2,2.2,29.84,West,274,0.0,2.0,43,0.00,CLR,,0.00,WeatherDisplay:10.37,2013-02-24 09:39:00,
2013-02-24 04:49:00,21.2,2.2,29.87,SW,228,0.0,1.0,43,0.00,CLR,,0.00,WeatherDisplay:10.37,2013-02-24 09:49:00,
2013-02-24 04:59:00,21.2,2.2,29.87,SSW,198,1.0,3.0,43,0.00,CLR,,0.00,WeatherDisplay:10.37,2013-02-24 09:59:00,
2013-02-24 05:09:00,21.2,2.2,29.87,SW,235,0.0,3.0,43,0.00,CLR,,0.00,WeatherDisplay:10.37,2013-02-24 10:09:00,
2013-02-24 05:19:00,21.2,2.2,29.87,West,270,2.0,3.0,43,0.00,CLR,,0.00,WeatherDisplay:10.37,2013-02-24 10:19:00,
2013-02-24 05:29:00,21.2,2.2,29.87,WNW,294,2.0,5.0,43,0.00,CLR,,0.00,WeatherDisplay:10.37,2013-02-24 10:29:00,
2013-02-24 05:39:00,21.2,2.2,29.90,WNW,290,1.0,5.0,43,0.00,CLR,,0.00,WeatherDisplay:10.37,2013-02-24 10:39:00,
2013-02-24 05:49:00,21.2,2.2,29.90,WNW,301,2.0,6.0,43,0.00,CLR,,0.00,WeatherDisplay:10.37,2013-02-24 10:49:00,
2013-02-24 05:59:00,21.2,2.2,29.90,NW,306,2.0,5.0,43,0.00,CLR,,0.00,WeatherDisplay:10.37,2013-02-24 10:59:00,
2013-02-24 06:09:00,21.2,2.2,29.90,NW,325,2.0,4.0,43,0.00,CLR,,0.00,WeatherDisplay:10.37,2013-02-24 11:09:00,
2013-02-24 06:19:00,21.2,2.2,29.90,NW,312,1.0,3.0,43,0.00,CLR,,0.00,WeatherDisplay:10.37,2013-02-24 11:19:00,
2013-02-24 06:29:00,21.2,2.2,29.90,WNW,292,1.0,3.0,43,0.00,CLR,,0.00,WeatherDisplay:10.37,2013-02-24 11:29:00,
2013-02-24 06:39:00,21.2,2.2,29.90,NW,305,0.0,3.0,43,0.00,CLR,,0.00,WeatherDisplay:10.37,2013-02-24 11:39:00,
2013-02-24 06:49:00,21.2,2.2,29.93,WNW,294,1.0,3.0,43,0.00,CLR,,0.00,WeatherDisplay:10.37,2013-02-24 11:49:00,
2013-02-24 06:59:00,21.2,2.2,29.93,WNW,292,0.0,2.0,43,0.00,CLR,,0.00,WeatherDisplay:10.37,2013-02-24 11:59:00,
2013-02-24 07:09:00,21.2,2.2,29.93,WNW,291,0.0,2.0,43,0.00,CLR,,0.00,WeatherDisplay:10.37,2013-02-24 12:09:00,
2013-02-24 07:19:00,21.2,2.2,29.93,WSW,249,1.0,2.0,43,0.00,CLR,,0.00,WeatherDisplay:10.37,2013-02-24 12:19:00,
2013-02-24 07:29:00,21.2,2.2,29.93,West,263,1.0,2.0,43,0.00,CLR,,0.00,WeatherDisplay:10.37,2013-02-24 12:29:00,
2013-02-24 07:39:00,21.2,2.2,29.93,NW,320,1.0,2.0,43,0.00,CLR,,0.00,WeatherDisplay:10.37,2013-02-24 12:39:00,
2013-02-24 07:49:00,21.2,2.2,29.93,NW,319,0.0,2.0,43,0.00,CLR,,0.00,WeatherDisplay:10.37,2013-02-24 12:49:00,
2013-02-24 07:59:00,21.2,2.2,29.93,North,350,0.0,2.0,43,0.00,CLR,,0.00,WeatherDisplay:10.37,2013-02-24 12:59:00,
2013-02-24 08:09:00,21.2,2.2,29.95,East,90,1.0,1.0,43,0.00,CLR,,0.00,WeatherDisplay:10.37,2013-02-24 13:09:00,
2013-02-24 08:19:00,21.2,2.2,29.95,SW,214,0.0,2.0,43,0.00,CLR,,0.00,WeatherDisplay:10.37,2013-02-24 13:19:00,
2013-02-24 08:29:00,21.2,2.2,29.95,SSW,211,2.0,3.0,43,0.00,CLR,,0.00,WeatherDisplay:10.37,2013-02-24 13:29:00,
2013-02-24 08:39:00,21.2,2.2,29.95,SSW,202,1.0,3.0,43,0.00,CLR,,0.00,WeatherDisplay:10.37,2013-02-24 13:39:00,
2013-02-24 08:49:00,21.2,2.2,29.99,SSW,201,2.0,6.0,43,0.00,CLR,,0.00,WeatherDisplay:10.37,2013-02-24 13:49:00,
2013-02-24 08:59:00,21.2,2.2,29.99,WSW,252,1.0,3.0,43,0.00,CLR,,0.00,WeatherDisplay:10.37,2013-02-24 13:59:00,
2013-02-24 09:09:00,21.2,2.2,29.99,SW,221,3.0,6.0,43,0.00,CLR,,0.00,WeatherDisplay:10.37,2013-02-24 14:09:00,
2013-02-24 09:19:00,21.2,2.2,29.99,SSW,206,3.0,6.0,43,0.00,CLR,,0.00,WeatherDisplay:10.37,2013-02-24 14:19:00,
2013-02-24 09:29:00,21.2,2.2,29.99,South,188,3.0,6.0,43,0.00,CLR,,0.00,WeatherDisplay:10.37,2013-02-24 14:29:00,
2013-02-24 09:39:00,21.2,2.2,29.99,South,184,3.0,6.0,43,0.00,CLR,,0.00,WeatherDisplay:10.37,2013-02-24 14:39:00,
2013-02-24 09:49:00,21.2,2.2,29.99,SSW,205,2.0,6.0,43,0.00,CLR,,0.00,WeatherDisplay:10.37,2013-02-24 14:49:00,
2013-02-24 09:59:00,21.2,2.2,29.99,SSW,210,3.0,6.0,43,0.00,CLR,,0.00,WeatherDisplay:10.37,2013-02-24 14:59:00,
2013-02-24 10:09:00,21.2,2.2,29.99,SSW,212,3.0,8.0,43,0.00,CLR,,0.00,WeatherDisplay:10.37,2013-02-24 15:09:00,
2013-02-24 10:19:00,21.2,2.2,29.99,South,182,2.0,5.0,43,0.00,CLR,,0.00,WeatherDisplay:10.37,2013-02-24 15:19:00,
2013-02-24 10:29:00,21.2,2.2,29.99,SSW,213,2.0,6.0,43,0.00,CLR,,0.00,WeatherDisplay:10.37,2013-02-24 15:29:00,
2013-02-24 10:39:00,21.2,2.2,29.99,West,270,2.0,5.0,43,0.00,CLR,,0.00,WeatherDisplay:10.37,2013-02-24 15:39:00,
2013-02-24 10:49:00,21.2,2.2,29.99,SSW,196,5.0,7.0,43,0.00,CLR,,0.00,WeatherDisplay:10.37,2013-02-24 15:49:00,
2013-02-24 10:59:00,21.2,2.2,29.99,SSW,203,6.0,8.0,43,0.00,CLR,,0.00,WeatherDisplay:10.37,2013-02-24 15:59:00,
2013-02-24 11:09:00,21.2,2.2,29.99,SW,229,2.0,6.0,43,0.00,CLR,,0.00,WeatherDisplay:10.37,2013-02-24 16:09:00,
2013-02-24 11:19:00,21.2,2.2,29.99,SW,234,3.0,6.0,43,0.00,CLR,,0.00,WeatherDisplay:10.37,2013-02-24 16:19:00,
2013-02-24 11:29:00,21.2,2.2,29.99,West,265,5.0,10.0,43,0.00,CLR,,0.00,WeatherDisplay:10.37,2013-02-24 16:29:00,
2013-02-24 11:39:00,21.2,2.2,29.99,WSW,253,3.0,7.0,43,0.00,CLR,,0.00,WeatherDisplay:10.37,2013-02-24 16:39:00,
2013-02-24 11:49:00,21.2,2.2,29.99,West,267,3.0,9.0,43,0.00,CLR,,0.00,WeatherDisplay:10.37,2013-02-24 16:49:00,
2013-02-24 11:59:00,21.2,2.2,29.99,SW,230,3.0,6.0,43,0.00,CLR,,0.00,WeatherDisplay:10.37,2013-02-24 16:59:00,
2013-02-24 12:09:00,55.4,17.1,29.99,SW,230,2.0,8.0,22,0.00,CLR,,0.00,WeatherDisplay:10.37,2013-02-24 17:09:00,
2013-02-24 12:19:00,48.6,16.9,29.99,SSW,203,5.0,12.0,28,0.00,CLR,,0.00,WeatherDisplay:10.37,2013-02-24 17:19:00,
2013-02-24 12:29:00,46.8,16.1,29.99,WSW,247,2.0,6.0,29,0.00,CLR,,0.00,WeatherDisplay:10.37,2013-02-24 17:29:00,
2013-02-24 12:39:00,46.6,16.0,29.99,SW,231,5.0,9.0,29,0.00,CLR,,0.00,WeatherDisplay:10.37,2013-02-24 17:39:00,
2013-02-24 12:49:00,47.0,15.5,29.99,SW,222,6.0,10.0,28,0.00,CLR,,0.00,WeatherDisplay:10.37,2013-02-24 17:49:00,
2013-02-24 12:59:00,47.5,15.9,29.99,SW,214,6.0,9.0,28,0.00,CLR,,0.00,WeatherDisplay:10.37,2013-02-24 17:59:00,
2013-02-24 13:09:00,48.5,16.9,29.99,SW,232,2.0,10.0,28,0.00,CLR,,0.00,WeatherDisplay:10.37,2013-02-24 18:09:00,
2013-02-24 13:20:00,49.0,16.4,29.99,SSW,205,5.0,10.0,27,0.00,CLR,,0.00,WeatherDisplay:10.37,2013-02-24 18:20:00,
2013-02-24 13:30:00,48.9,16.4,29.99,WSW,244,6.0,8.0,27,0.00,CLR,,0.00,WeatherDisplay:10.37,2013-02-24 18:30:00,
2013-02-24 13:40:00,50.0,17.3,29.99,SSW,207,5.0,10.0,27,0.00,CLR,,0.00,WeatherDisplay:10.37,2013-02-24 18:40:00,
2013-02-24 13:50:00,50.0,16.4,30.01,SW,233,6.0,9.0,26,0.00,CLR,,0.00,WeatherDisplay:10.37,2013-02-24 18:50:00,
2013-02-24 14:00:00,50.7,17.9,30.01,WSW,244,5.0,12.0,27,0.00,CLR,,0.00,WeatherDisplay:10.37,2013-02-24 19:00:00,
2013-02-24 14:10:00,50.2,16.6,30.01,West,273,5.0,12.0,26,0.00,CLR,,0.00,WeatherDisplay:10.37,2013-02-24 19:10:00,
2013-02-24 14:20:00,50.9,17.2,30.01,West,268,3.0,6.0,26,0.00,CLR,,0.00,WeatherDisplay:10.37,2013-02-24 19:20:00,
2013-02-24 14:30:00,51.6,17.8,30.01,WSW,239,3.0,9.0,26,0.00,CLR,,0.00,WeatherDisplay:10.37,2013-02-24 19:30:00,
2013-02-24 14:40:00,52.0,18.1,30.01,SSW,194,5.0,9.0,26,0.00,CLR,,0.00,WeatherDisplay:10.37,2013-02-24 19:40:00,
2013-02-24 14:50:00,52.5,18.6,30.01,WSW,247,3.0,6.0,26,0.00,CLR,,0.00,WeatherDisplay:10.37,2013-02-24 19:50:00,
2013-02-24 15:00:00,52.5,18.6,30.01,SW,220,5.0,10.0,26,0.00,CLR,,0.00,WeatherDisplay:10.37,2013-02-24 20:00:00,
2013-02-24 15:10:00,53.1,16.2,30.01,SW,222,5.0,11.0,23,0.00,CLR,,0.00,WeatherDisplay:10.37,2013-02-24 20:10:00,
2013-02-24 15:20:00,52.6,15.8,30.04,SW,223,7.0,10.0,23,0.00,CLR,,0.00,WeatherDisplay:10.37,2013-02-24 20:20:00,
2013-02-24 15:30:00,52.4,15.7,30.04,WSW,256,5.0,8.0,23,0.00,CLR,,0.00,WeatherDisplay:10.37,2013-02-24 20:30:00,
2013-02-24 15:40:00,52.9,16.0,30.01,SW,221,2.0,10.0,23,0.00,CLR,,0.00,WeatherDisplay:10.37,2013-02-24 20:40:00,
2013-02-24 15:50:00,54.4,17.3,30.01,South,178,5.0,15.0,23,0.00,CLR,,0.00,WeatherDisplay:10.37,2013-02-24 20:50:00,
2013-02-24 16:00:00,53.8,15.8,30.01,SW,214,5.0,15.0,22,0.00,CLR,,0.00,WeatherDisplay:10.37,2013-02-24 21:00:00,
2013-02-24 16:10:00,54.3,17.3,30.01,SSW,201,5.0,12.0,23,0.00,CLR,,0.00,WeatherDisplay:10.37,2013-02-24 21:10:00,
2013-02-24 16:20:00,54.0,13.7,30.01,SSW,201,2.0,10.0,20,0.00,CLR,,0.00,WeatherDisplay:10.37,2013-02-24 21:20:00,
2013-02-24 16:30:00,54.1,13.9,30.01,SSW,210,3.0,7.0,20,0.00,CLR,,0.00,WeatherDisplay:10.37,2013-02-24 21:30:00,
2013-02-24 16:40:00,54.1,13.9,30.01,SSW,204,5.0,7.0,20,0.00,CLR,,0.00,WeatherDisplay:10.37,2013-02-24 21:40:00,
2013-02-24 16:50:00,53.6,13.5,30.04,SW,215,5.0,9.0,20,0.00,CLR,,0.00,WeatherDisplay:10.37,2013-02-24 21:50:00,
2013-02-24 17:00:00,54.0,13.7,30.04,WSW,245,3.0,9.0,20,0.00,CLR,,0.00,WeatherDisplay:10.37,2013-02-24 22:00:00,
2013-02-24 17:10:00,53.4,14.4,30.04,WNW,290,6.0,9.0,21,0.00,CLR,,0.00,WeatherDisplay:10.37,2013-02-24 22:10:00,
2013-02-24 17:20:00,52.7,13.8,30.04,NW,305,6.0,9.0,21,0.00,CLR,,0.00,WeatherDisplay:10.37,2013-02-24 22:20:00,
2013-02-24 17:30:00,52.3,13.5,30.04,NW,320,5.0,8.0,21,0.00,CLR,,0.00,WeatherDisplay:10.37,2013-02-24 22:30:00,
2013-02-24 17:40:00,52.0,13.2,30.04,WNW,301,5.0,8.0,21,0.00,CLR,,0.00,WeatherDisplay:10.37,2013-02-24 22:40:00,
2013-02-24 17:50:00,51.2,12.6,30.04,NW,313,5.0,7.0,21,0.00,CLR,,0.00,WeatherDisplay:10.37,2013-02-24 22:50:00,
2013-02-24 18:00:00,50.1,11.6,30.04,NW,308,3.0,6.0,21,0.00,CLR,,0.00,WeatherDisplay:10.37,2013-02-24 23:00:00,
2013-02-24 18:10:00,48.2,10.0,30.01,NW,321,5.0,7.0,21,0.00,CLR,,0.00,WeatherDisplay:10.37,2013-02-24 23:10:00,
2013-02-24 18:20:00,46.9,10.0,30.01,NW,306,3.0,5.0,22,0.00,CLR,,0.00,WeatherDisplay:10.37,2013-02-24 23:20:00,
2013-02-24 18:30:00,45.3,8.6,30.01,NW,310,2.0,5.0,22,0.00,CLR,,0.00,WeatherDisplay:10.37,2013-02-24 23:30:00,
2013-02-24 18:40:00,44.6,8.0,30.01,NW,309,2.0,5.0,22,0.00,CLR,,0.00,WeatherDisplay:10.37,2013-02-24 23:40:00,
2013-02-24 18:50:00,43.9,8.4,30.01,NW,319,3.0,5.0,23,0.00,CLR,,0.00,WeatherDisplay:10.37,2013-02-24 23:50:00,
2013-02-24 19:00:00,43.3,9.8,30.01,WNW,301,2.0,4.0,25,0.00,CLR,,0.00,WeatherDisplay:10.37,2013-02-25 00:00:00,
2013-02-24 19:10:00,42.0,9.5,30.01,WNW,301,2.0,3.0,26,0.00,CLR,,0.00,WeatherDisplay:10.37,2013-02-25 00:10:00,
2013-02-24 19:20:00,41.0,10.3,30.01,WNW,299,2.0,3.0,28,0.00,CLR,,0.00,WeatherDisplay:10.37,2013-02-25 00:20:00,
2013-02-24 19:30:00,40.3,10.5,30.01,WNW,300,2.0,3.0,29,0.00,CLR,,0.00,WeatherDisplay:10.37,2013-02-25 00:30:00,
2013-02-24 19:40:00,39.8,10.1,30.04,NW,308,2.0,4.0,29,0.00,CLR,,0.00,WeatherDisplay:10.37,2013-02-25 00:40:00,
2013-02-24 19:50:00,39.6,9.9,30.04,NW,313,3.0,6.0,29,0.00,CLR,,0.00,WeatherDisplay:10.37,2013-02-25 00:50:00,
2013-02-24 20:00:00,39.4,10.5,30.04,NW,316,3.0,5.0,30,0.00,CLR,,0.00,WeatherDisplay:10.37,2013-02-25 01:00:00,
2013-02-24 20:10:00,39.0,10.2,30.01,NW,314,2.0,5.0,30,0.00,CLR,,0.00,WeatherDisplay:10.37,2013-02-25 01:10:00,
2013-02-24 20:20:00,39.7,10.8,30.04,NW,320,3.0,7.0,30,0.00,CLR,,0.00,WeatherDisplay:10.37,2013-02-25 01:20:00,
2013-02-24 20:30:00,39.4,10.5,30.04,NW,316,2.0,5.0,30,0.00,CLR,,0.00,WeatherDisplay:10.37,2013-02-25 01:30:00,
2013-02-24 20:40:00,38.5,10.4,30.04,NW,309,3.0,4.0,31,0.00,CLR,,0.00,WeatherDisplay:10.37,2013-02-25 01:40:00,
2013-02-24 20:50:00,37.9,10.7,30.04,NW,309,2.0,5.0,32,0.00,CLR,,0.00,WeatherDisplay:10.37,2013-02-25 01:50:00,
2013-02-24 21:00:00,37.6,10.3,30.04,NW,306,3.0,6.0,32,0.00,CLR,,0.00,WeatherDisplay:10.37,2013-02-25 02:00:00,
2013-02-24 21:10:00,37.6,11.0,30.04,NW,310,5.0,5.0,33,0.00,CLR,,0.00,WeatherDisplay:10.37,2013-02-25 02:10:00,
2013-02-24 21:20:00,37.9,11.3,30.01,NW,312,5.0,7.0,33,0.00,CLR,,0.00,WeatherDisplay:10.37,2013-02-25 02:20:00,
2013-02-24 21:30:00,38.1,11.5,30.01,NW,308,5.0,7.0,33,0.00,CLR,,0.00,WeatherDisplay:10.37,2013-02-25 02:30:00,
2013-02-24 21:40:00,37.9,11.3,30.01,NW,304,3.0,6.0,33,0.00,CLR,,0.00,WeatherDisplay:10.37,2013-02-25 02:40:00,
2013-02-24 21:50:00,38.1,10.8,30.01,NW,320,3.0,6.0,32,0.00,CLR,,0.00,WeatherDisplay:10.37,2013-02-25 02:50:00,
2013-02-24 22:00:00,38.1,10.8,30.01,NNW,327,3.0,4.0,32,0.00,CLR,,0.00,WeatherDisplay:10.37,2013-02-25 03:00:00,
2013-02-24 22:10:00,37.8,10.5,30.01,NW,313,1.0,3.0,32,0.00,CLR,,0.00,WeatherDisplay:10.37,2013-02-25 03:10:00,
2013-02-24 22:20:00,36.9,9.7,30.01,NW,315,1.0,2.0,32,0.00,CLR,,0.00,WeatherDisplay:10.37,2013-02-25 03:20:00,
2013-02-24 22:30:00,36.3,9.9,30.01,NW,311,1.0,2.0,33,0.00,CLR,,0.00,WeatherDisplay:10.37,2013-02-25 03:30:00,
2013-02-24 22:40:00,36.1,10.4,30.01,NW,315,3.0,5.0,34,0.00,CLR,,0.00,WeatherDisplay:10.37,2013-02-25 03:40:00,
2013-02-24 22:50:00,36.9,11.1,29.99,NW,324,5.0,6.0,34,0.00,CLR,,0.00,WeatherDisplay:10.37,2013-02-25 03:50:00,
2013-02-24 23:00:00,36.8,11.0,29.99,NW,313,2.0,6.0,34,0.00,CLR,,0.00,WeatherDisplay:10.37,2013-02-25 04:00:00,
2013-02-24 23:10:00,36.1,9.8,30.01,WNW,294,0.0,4.0,33,0.00,CLR,,0.00,WeatherDisplay:10.37,2013-02-25 04:10:00,
2013-02-24 23:20:00,35.8,9.4,29.99,NNW,329,0.0,2.0,33,0.00,CLR,,0.00,WeatherDisplay:10.37,2013-02-25 04:20:00,
2013-02-24 23:30:00,35.4,9.8,29.99,East,83,0.0,2.0,34,0.00,CLR,,0.00,WeatherDisplay:10.37,2013-02-25 04:30:00,
2013-02-24 23:40:00,34.7,9.1,29.99,East,90,0.0,0.0,34,0.00,CLR,,0.00,WeatherDisplay:10.37,2013-02-25 04:40:00,
2013-02-24 23:50:00,34.3,9.5,29.99,East,90,0.0,0.0,35,0.00,CLR,,0.00,WeatherDisplay:10.37,2013-02-25 04:50:00,